User: anonymous   Login
Location: Unspecified
(0.0000°N, 0.0000°E)
Time: 14:28:03
(UTC+02:00)
Language:

OPAL - Orbit

View from above orbital plane
View from above orbital plane
View from above satellite
View from above satellite

Ground track
Ground track

The orbit data is extracted from the following two-line orbital elements,

1 26063U 00004C   18173.78834849 -.00000032  00000-0  93288-5 0  9993
2 26063 100.1910 250.7715 0036218 344.9888  15.0215 14.36700184964593
Epoch (UTC): 22 June 2018 18:55:13
Eccentricity: 0.0036218
inclination: 100.1910°
perigee height: 743 km
apogee height: 795 km
right ascension of ascending node: 250.7715°
argument of perigee: 344.9888°
revolutions per day: 14.36700184
mean anomaly at epoch: 15.0215°
orbit number at epoch: 96459

The dashed part of the orbit path shows where the satellite is in the earth's shadow,  

DLR